Miscellaneous Local Product
Issued by NWS Hastings, NE

Home | Current Version | Previous Version | Graphics & Text | Print | Product List | Glossary On
Versions: 1 2 3 4 5 6 7 8 9 10 11 12 13 14 15 16 17 18 19 20 21 22 23 24 25 26 27 28 29 30 31 32 33 34 35 36 37 38 39 40 41 42 43 44 45 46 47 48 49 50
000
AXUS43 KGID 201502
MISGRI

GID CWA HOURLY WEATHER ROUNDUP
NATIONAL WEATHER SERVICE HASTINGS NE
900 AM CST FRI JAN 20 2017

NOTE: "FAIR" INDICATES FEW OR NO CLOUDS BELOW 12,000 FEET WITH NO
SIGNIFICANT WEATHER AND/OR OBSTRUCTIONS TO VISIBILITY.

...SOUTH CENTRAL NEBRASKA...

CITY           SKY/WX    TMP DP  RH WIND       PRES   REMARKS
GRAND ISLAND   FOG       37  37 100 S8        29.51R VSB 1/4 WCI  31
HASTINGS       FOG       38  38 100 S5        29.51F VSB 1/4 WCI  34
KEARNEY        CLOUDY    36  34  93 S5        29.48F VSB<1/4 WCI  32
ORD            CLEAR     32  30  92 E3        29.46F FOG
YORK           FOG       37  37 100 S6        29.53S VSB<1/4 WCI  33
AURORA         FOG       36  36 100 S3        29.51S VSB<1/4
LEXINGTON      CLOUDY    36  35  96 CALM      29.47F FOG
HOLDREGE       FOG       36  35  97 SE3       29.47F VSB 1/4
HEBRON         CLOUDY    38  38  99 CALM      29.51F FOG

...NEBRASKA PANHANDLE...

CITY           SKY/WX    TMP DP  RH WIND       PRES   REMARKS
CHADRON        CLOUDY    25  20  81 SW8       29.42F WCI  16
ALLIANCE       CLOUDY    25  22  88 W9        29.40F WCI  15
SCOTTSBLUFF    CLOUDY    28  23  81 NW9       29.44R WCI  19
SIDNEY         CLOUDY    31  26  82 W8        29.45R WCI  23

...WESTERN AND NORTH CENTRAL NEBRASKA...

CITY           SKY/WX    TMP DP  RH WIND       PRES   REMARKS
VALENTINE      CLOUDY    26  22  84 W5        29.39R WCI  20
AINSWORTH      CLEAR     29  28  92 S10       29.41S WCI  20
ONEILL         CLEAR     33  33  99 S9        29.45S WCI  26
BROKEN BOW     PTCLDY    32  31  96 S6        29.46R FOG     WCI  26
IMPERIAL       FOG       28  27  96 CALM      29.46S VSB 3/4
NORTH PLATTE   CLOUDY    34  31  88 CALM      29.46F FOG
MCCOOK         CLOUDY    34  34 100 NW3       29.47S FOG

...EASTERN NEBRASKA...

CITY           SKY/WX    TMP DP  RH WIND       PRES   REMARKS
NORFOLK        CLOUDY    38  37  97 S7        29.51S FOG     WCI  33
SO SIOUX CITY  CLOUDY    39  38  96 SE7       29.56S FOG     WCI  34
TEKAMAH        CLOUDY    36  35  96 SE5       29.57F FOG     WCI  32
COLUMBUS       CLOUDY    39  37  93 S8        29.53F WCI  34
ALBION         FOG      N/A N/A N/A S8        29.50F VSB 1/2
OMAHA EPPLEY   DRIZZLE   40  36  86 S5        29.58S FOG
OFFUTT AFB     FOG       39  39 100 NE5       29.57S VSB 1
MILLARD        CLOUDY    42  41  97 SE5       29.57S FOG
LINCOLN        FOG       39  39 100 SE3       29.56F VSB<1/4
NEBRASKA CITY  FOG       38  38 100 S3        29.57S VSB 1/4
BEATRICE       CLOUDY    40  40 100 E3        29.54F
FALLS CITY     FOG       40  40 100 N5        29.55F VSB<1/4

...NORTHERN KANSAS...

CITY           SKY/WX    TMP DP  RH WIND       PRES   REMARKS
GOODLAND       CLOUDY    30  29  96 W6        29.42S WCI  24
HILL CITY      FOG       38  38 100 CALM      29.49R VSB<1/4
NORTON         FOG       36  34  93 CALM      29.47S VSB 1/2
PHILLIPSBURG   FOG       37  37 100 E3        29.50R VSB 1/4
SMITH CENTER   FOG       37  37 100 E6        29.50S VSB 1/2 WCI  33
HAYS           FOG       40  40 100 CALM      29.49F VSB<1/4
RUSSELL        FOG       41  41 100 CALM      29.48F VSB<1/4
CONCORDIA      FOG       39  39 100 SE3       29.51S VSB<1/4
SALINA         FOG       43  41  93 E5        29.51S VSB 1/4
TOPEKA         FOG       46  43  89 E6        29.53F VSB 1/4



USA.gov is the U.S. government's official web portal to all federal, state and local government web resources and services.